FW0014 Weather Reports


time (UTC)temp
F
wind
direction
speed
knots
gust
knots
rain 1hr
in
rain 24hr
in
rain mn
in
humidity
%
barometer
mb
20260902183127 93 161 0.0 0.0 0.00 0.00 0.00 46 1013.4
20260902182825 93 160 0.0 0.0 0.00 0.00 0.00 46 1016.5
20260902182543 93 316 0.0 0.0 0.00 0.00 0.00 46 1013.5
20260902182322 94 304 0.0 0.0 0.00 0.00 0.00 46 1016.6
20260902182033 93 297 0.0 0.0 0.00 0.00 0.00 46 1013.6
20260902181840 94 343 0.0 0.0 0.00 0.00 0.00 45 1016.7
20260902181519 94 261 0.0 0.0 0.00 0.00 0.00 45 1013.7
20260902181330 95 297 0.0 0.0 0.00 0.00 0.00 46 1016.8
20260902181003 94 341 0.0 0.0 0.00 0.00 0.00 46 1013.7
20260902180827 95 299 0.0 0.0 0.00 0.00 0.00 46 1016.8
20260902180555 94 305 0.0 0.0 0.00 0.00 0.00 47 1013.7
20260902180344 94 125 0.0 0.0 0.00 0.00 0.00 47 1016.9
20260902180025 93 184 0.0 0.0 0.00 0.00 0.00 48 1013.9
20260902175821 94 89 0.0 0.0 0.00 0.00 0.00 47 1016.9
20260902175523 93 93 0.0 0.0 0.00 0.00 0.00 48 1013.9
20260902175338 94 134 0.0 0.0 0.00 0.00 0.00 48 1017.0
20260902175040 93 199 0.0 0.0 0.00 0.00 0.00 49 1014.2
20260902174835 93 68 0.0 0.0 0.00 0.00 0.00 49 1017.3
20260902174503 92 15 0.0 0.0 0.00 0.00 0.00 49 1014.4
20260902174331 93 224 0.0 0.0 0.00 0.00 0.00 49 1017.4
20260902174057 92 224 0.0 0.0 0.00 0.00 0.00 49 1014.5
20260902173850 92 224 0.0 0.0 0.00 0.00 0.00 50 1017.5
20260902173527 92 187 0.0 0.0 0.00 0.00 0.00 50 1014.5
20260902173326 92 50 0.0 0.0 0.00 0.00 0.00 49 1017.5
20260902173009 92 214 0.0 0.0 0.00 0.00 0.00 49 1014.5
20260902172824 93 243 0.0 0.0 0.00 0.00 0.00 50 1017.5
20260902172601 92 228 0.0 0.0 0.00 0.00 0.00 51 1014.4
20260902172322 92 214 0.0 0.0 0.00 0.00 0.00 50 1017.4
20260902172051 91 243 0.0 0.0 0.00 0.00 0.00 51 1014.5
20260902171819 92 354 0.0 0.0 0.00 0.00 0.00 50 1017.5
20260902171544 91 320 0.0 0.0 0.00 0.00 0.00 51 1014.5
20260902171316 92 263 0.0 0.0 0.00 0.00 0.00 51 1017.6
20260902171035 91 347 0.0 0.0 0.00 0.00 0.00 51 1014.6
20260902170814 92 56 0.0 0.0 0.00 0.00 0.00 51 1017.6
20260902170515 91 13 0.0 0.0 0.00 0.00 0.00 51 1014.5
20260902170332 92 354 0.0 0.0 0.00 0.00 0.00 52 1017.6
20260902170005 91 268 0.0 0.0 0.00 0.00 0.00 52 1014.7
20260902165830 91 265 0.0 0.0 0.00 0.00 0.00 52 1017.7
20260902165558 91 265 0.0 0.0 0.00 0.00 0.00 52 1014.7
20260902165327 91 249 0.0 0.0 0.00 0.00 0.00 53 1017.7
20260902165050 91 252 0.0 0.0 0.00 0.00 0.00 53 1014.8
20260902164826 91 262 0.0 0.0 0.00 0.00 0.00 54 1017.8
20260902164555 90 228 0.0 0.0 0.00 0.00 0.00 54 1014.9
20260902164323 91 269 0.0 0.0 0.00 0.00 0.00 54 1018.0
20260902164035 90 303 0.0 0.0 0.00 0.00 0.00 55 1015.1
20260902163820 90 327 0.0 0.0 0.00 0.00 0.00 55 1018.1
20260902163535 90 284 0.0 0.0 0.00 0.00 0.00 54 1015.1
20260902163319 90 278 0.0 0.0 0.00 0.00 0.00 55 1018.2
20260902163032 90 276 0.0 0.0 0.00 0.00 0.00 55 1015.2
20260902162818 90 272 0.0 0.0 0.00 0.00 0.00 56 1018.3
20260902162526 89 212 0.0 0.0 0.00 0.00 0.00 55 1015.1
20260902162315 90 223 0.0 0.0 0.00 0.00 0.00 56 1018.2
20260902162051 89 216 0.0 0.0 0.00 0.00 0.00 57 1015.1
20260902161827 90 269 0.0 0.0 0.00 0.00 0.00 57 1018.2
20260902161543 89 258 0.0 0.0 0.00 0.00 0.00 57 1015.0
20260902161324 89 278 0.0 0.0 0.00 0.00 0.00 58 1018.3
20260902161034 89 246 0.0 0.0 0.00 0.00 0.00 58 1015.1
20260902160822 89 284 0.0 0.0 0.00 0.00 0.00 58 1018.2
20260902160529 88 242 0.0 0.0 0.00 0.00 0.00 59 1015.2
20260902160319 89 290 0.0 0.0 0.00 0.00 0.00 59 1018.2
20260902160020 88 249 0.0 0.0 0.00 0.00 0.00 60 1015.1
20260902155817 88 257 0.0 0.0 0.00 0.00 0.00 60 1018.3
20260902155514 88 295 0.0 0.0 0.00 0.00 0.00 60 1015.2
20260902155333 88 309 0.0 0.0 0.00 0.00 0.00 60 1018.2
20260902155037 88 315 0.0 0.0 0.00 0.00 0.00 61 1015.2
20260902154850 88 296 0.0 0.0 0.00 0.00 0.00 62 1018.3
20260902154501 87 262 0.0 0.0 0.00 0.00 0.00 63 1015.1
20260902154327 88 275 0.0 0.0 0.00 0.00 0.00 63 1018.3
20260902154058 87 274 0.0 0.0 0.00 0.00 0.00 63 1015.2
20260902153823 87 260 0.0 0.0 0.00 0.00 0.00 64 1018.2
20260902153549 86 230 0.0 0.0 0.00 0.00 0.00 63 1015.1
20260902153321 87 227 0.0 0.0 0.00 0.00 0.00 64 1018.2
20260902153041 86 264 0.0 0.0 0.00 0.00 0.00 64 1015.1
20260902152838 86 271 0.0 0.0 0.00 0.00 0.00 64 1018.2
20260902152528 86 287 0.0 0.0 0.00 0.00 0.00 65 1015.1
20260902152327 86 280 0.0 0.0 0.00 0.00 0.00 65 1018.1
20260902152053 86 263 0.0 0.0 0.00 0.00 0.00 65 1015.2
20260902151825 86 263 0.0 0.0 0.00 0.00 0.00 65 1018.2
20260902151548 85 197 0.0 0.0 0.00 0.00 0.00 65 1015.1
20260902151322 86 231 0.0 0.0 0.00 0.00 0.00 66 1018.3
20260902151040 85 224 0.0 0.0 0.00 0.00 0.00 66 1015.2
20260902150819 86 253 0.0 0.0 0.00 0.00 0.00 66 1018.3
20260902150533 85 262 0.0 0.0 0.00 0.00 0.00 66 1015.2
20260902150338 85 251 0.0 0.0 0.00 0.00 0.00 67 1018.3
20260902150021 85 220 0.0 0.0 0.00 0.00 0.00 66 1015.2
20260902145830 85 237 0.0 0.0 0.00 0.00 0.00 67 1018.3
20260902145505 84 231 0.0 0.0 0.00 0.00 0.00 67 1015.2
20260902145329 85 224 0.0 0.0 0.00 0.00 0.00 69 1018.3
20260902145056 84 222 0.0 0.0 0.00 0.00 0.00 69 1015.2
20260902144825 84 256 0.0 0.0 0.00 0.00 0.00 69 1018.3
20260902144600 84 218 0.0 0.0 0.00 0.00 0.00 69 1015.3
20260902144321 84 261 0.0 0.0 0.00 0.00 0.00 69 1018.3
20260902144043 83 214 0.0 0.0 0.00 0.00 0.00 70 1015.2
20260902143817 83 249 0.0 0.0 0.00 0.00 0.00 71 1018.3
20260902143533 83 251 0.0 0.0 0.00 0.00 0.00 71 1015.2
20260902143333 83 267 0.0 0.0 0.00 0.00 0.00 71 1018.2
20260902143015 82 272 0.0 0.0 0.00 0.00 0.00 72 1015.2
20260902142830 82 204 0.0 0.0 0.00 0.00 0.00 72 1018.2
20260902142547 81 210 0.0 0.0 0.00 0.00 0.00 74 1015.3
20260902142327 82 87 0.0 0.0 0.00 0.00 0.00 74 1018.3
20260902142039 81 86 0.0 0.0 0.00 0.00 0.00 75 1015.3
20260902141828 82 87 0.0 0.0 0.00 0.00 0.00 75 1018.3
20260902141535 81 86 0.0 0.0 0.00 0.00 0.00 76 1015.3
20260902141324 81 87 0.0 0.0 0.00 0.00 0.00 76 1018.3
20260902141053 81 87 0.0 0.0 0.00 0.00 0.00 76 1015.3
20260902140820 81 86 0.0 0.0 0.00 0.00 0.00 77 1018.2
20260902140547 80 86 0.0 0.0 0.00 0.00 0.00 77 1015.3
20260902140319 80 87 0.0 0.0 0.00 0.00 0.00 77 1018.2
20260902140040 80 87 0.0 0.0 0.00 0.00 0.00 77 1015.3
20260902135837 80 31 0.0 0.0 0.00 0.00 0.00 78 1018.2
20260902135603 79 31 0.0 0.0 0.00 0.00 0.00 78 1015.3
20260902135333 80 31 0.0 0.0 0.00 0.00 0.00 78 1018.2
20260902135053 79 23 0.0 0.0 0.00 0.00 0.00 78 1015.2
20260902134831 79 140 0.0 0.0 0.00 0.00 0.00 79 1018.1
20260902134548 79 140 0.0 0.0 0.00 0.00 0.00 79 1015.2
20260902134330 79 141 0.0 0.0 0.00 0.00 0.00 80 1018.1
20260902134044 78 140 0.0 0.0 0.00 0.00 0.00 81 1015.1
20260902133848 78 139 0.0 0.0 0.00 0.00 0.00 81 1018.0
20260902133507 77 140 0.0 0.0 0.00 0.00 0.00 82 1015.1
20260902133325 77 140 0.0 0.0 0.00 0.00 0.00 82 1018.0
20260902133103 76 140 0.0 0.0 0.00 0.00 0.00 83 1015.1
20260902132822 76 140 0.0 0.0 0.00 0.00 0.00 83 1018.0
20260902132557 75 140 0.0 0.0 0.00 0.00 0.00 83 1015.0
20260902132319 75 141 0.0 0.0 0.00 0.00 0.00 83 1018.0
20260902132046 74 141 0.0 0.0 0.00 0.00 0.00 83 1015.0
20260902131817 75 140 0.0 0.9 0.00 0.00 0.00 83 1017.9
20260902131550 74 140 0.0 0.9 0.00 0.00 0.00 83 1014.9
20260902131314 74 141 0.0 0.9 0.00 0.00 0.00 83 1017.9
20260902131031 74 140 0.0 0.9 0.00 0.00 0.00 84 1014.9
20260902130829 74 141 0.0 0.0 0.00 0.00 0.00 84 1017.9
20260902130513 73 140 0.0 0.0 0.00 0.00 0.00 83 1014.9
20260902130325 74 140 0.0 0.0 0.00 0.00 0.00 84 1017.9
20260902130008 73 140 0.0 0.0 0.00 0.00 0.00 84 1014.9
20260902125822 73 140 0.0 0.0 0.00 0.00 0.00 84 1017.8
20260902125556 72 140 0.0 0.0 0.00 0.00 0.00 84 1014.9
20260902125340 73 140 0.0 0.0 0.00 0.00 0.00 84 1017.8
20260902125045 72 140 0.0 0.0 0.00 0.00 0.00 83 1014.8
20260902124831 72 141 0.0 0.0 0.00 0.00 0.00 83 1017.6
20260902124535 72 141 0.0 0.0 0.00 0.00 0.00 83 1014.7
20260902124350 72 140 0.0 0.0 0.00 0.00 0.00 83 1017.4
20260902124102 72 141 0.0 0.0 0.00 0.00 0.00 83 1014.5
20260902123829 72 141 0.0 0.0 0.00 0.00 0.00 83 1017.4
20260902123548 71 140 0.0 0.0 0.00 0.00 0.00 83 1014.5
20260902123325 72 141 0.0 0.0 0.00 0.00 0.00 83 1017.3
20260902123039 71 141 0.0 0.0 0.00 0.00 0.00 83 1014.4
20260902122823 72 141 0.0 0.0 0.00 0.00 0.00 82 1017.2
20260902122529 71 141 0.0 1.7 0.00 0.00 0.00 82 1014.4
20260902122320 72 141 0.0 1.7 0.00 0.00 0.00 82 1017.3
20260902122021 71 141 0.0 1.7 0.00 0.00 0.00 82 1014.4
20260902121818 72 141 0.9 1.7 0.00 0.00 0.00 82 1017.2
20260902121506 72 141 0.9 1.7 0.00 0.00 0.00 82 1014.4
20260902121316 72 140 0.9 1.7 0.00 0.00 0.00 82 1017.4
20260902121058 72 139 0.9 1.7 0.00 0.00 0.00 82 1014.5
20260902120814 72 139 0.0 1.7 0.00 0.00 0.00 82 1017.4
20260902120552 72 139 0.9 1.7 0.00 0.00 0.00 82 1014.3
20260902120331 72 139 0.9 1.7 0.00 0.00 0.00 82 1017.2
20260902120041 72 139 0.0 1.7 0.00 0.00 0.00 82 1014.4
20260902115830 72 139 0.9 1.7 0.00 0.00 0.00 82 1017.3
20260902115534 72 139 0.9 1.7 0.00 0.00 0.00 82 1014.4
20260902115330 72 139 0.9 1.7 0.00 0.00 0.00 82 1017.3
20260902115015 72 138 0.9 1.7 0.00 0.00 0.00 81 1014.5
20260902114828 72 138 0.9 1.7 0.00 0.00 0.00 81 1017.3
20260902114511 72 138 0.9 1.7 0.00 0.00 0.00 81 1014.5
20260902114324 73 137 0.9 1.7 0.00 0.00 0.00 81 1017.4
20260902114103 72 138 0.0 1.7 0.00 0.00 0.00 81 1014.6
20260902113823 73 138 0.9 1.7 0.00 0.00 0.00 81 1017.4
20260902113550 72 138 0.0 1.7 0.00 0.00 0.00 81 1014.5
20260902113340 73 138 0.9 1.7 0.00 0.00 0.00 81 1017.3
20260902113038 72 138 0.9 1.7 0.00 0.00 0.00 81 1014.4
20260902112831 73 138 0.9 1.7 0.00 0.00 0.00 81 1017.3
20260902112531 72 138 0.0 0.0 0.00 0.00 0.00 81 1014.4
20260902112329 73 138 0.0 0.0 0.00 0.00 0.00 81 1017.4
20260902112011 72 138 0.0 0.9 0.00 0.00 0.00 81 1014.5
20260902111829 73 138 0.0 1.7 0.00 0.00 0.00 80 1017.4
20260902111502 72 138 0.0 1.7 0.00 0.00 0.00 80 1014.5
20260902111345 73 138 0.0 1.7 0.00 0.00 0.00 81 1017.3
20260902111033 72 139 0.9 1.7 0.00 0.00 0.00 81 1014.4
20260902110822 73 139 0.9 1.7 0.00 0.00 0.00 81 1017.2
20260902110527 72 138 0.9 1.7 0.00 0.00 0.00 81 1014.3
20260902110320 73 139 0.9 1.7 0.00 0.00 0.00 80 1017.2
20260902110032 72 138 0.0 0.9 0.00 0.00 0.00 80 1014.2
20260902105817 73 138 0.0 0.0 0.00 0.00 0.00 80 1017.1
20260902105501 72 138 0.0 0.9 0.00 0.00 0.00 80 1014.2
20260902105314 73 137 0.0 0.9 0.00 0.00 0.00 80 1017.1
20260902105055 73 139 0.0 0.9 0.00 0.00 0.00 80 1014.3
20260902104831 73 138 0.9 0.9 0.00 0.00 0.00 80 1017.2
20260902104545 73 138 0.0 0.9 0.00 0.00 0.00 80 1014.3
20260902104349 73 138 0.0 0.9 0.00 0.00 0.00 80 1017.2
20260902104012 73 138 0.0 0.0 0.00 0.00 0.00 80 1014.3
20260902103824 73 138 0.0 0.0 0.00 0.00 0.00 79 1017.2
20260902103508 73 139 0.0 0.0 0.00 0.00 0.00 79 1014.2
20260902103322 73 138 0.0 0.0 0.00 0.00 0.00 79 1017.1
20260902103004 73 138 0.0 0.0 0.00 0.00 0.00 79 1014.2
20260902102839 73 138 0.0 0.9 0.00 0.00 0.00 79 1017.0
20260902102554 73 138 0.0 0.9 0.00 0.00 0.00 79 1014.3
20260902102329 73 138 0.0 0.9 0.00 0.00 0.00 79 1017.2
20260902102047 73 139 0.0 1.7 0.00 0.00 0.00 79 1014.3
20260902101825 73 138 0.0 1.7 0.00 0.00 0.00 79 1017.2
20260902101547 73 138 0.0 1.7 0.00 0.00 0.00 79 1014.4
20260902101323 74 138 0.0 2.6 0.00 0.00 0.00 79 1017.3
20260902101037 73 138 0.0 2.6 0.00 0.00 0.00 79 1014.4
20260902100840 74 138 0.9 2.6 0.00 0.00 0.00 79 1017.4
20260902100600 73 138 0.9 2.6 0.00 0.00 0.00 79 1014.5
20260902100315 74 138 0.9 1.7 0.00 0.00 0.00 79 1017.4
20260902100052 73 138 0.0 0.9 0.00 0.00 0.00 79 1014.4
20260902095832 74 138 0.0 0.0 0.00 0.00 0.00 78 1017.2
20260902095545 73 138 0.0 1.7 0.00 0.00 0.00 78 1014.3
20260902095328 74 138 0.0 1.7 0.00 0.00 0.00 78 1017.0
20260902095038 73 138 0.0 1.7 0.00 0.00 0.00 78 1014.2
20260902094823 74 138 0.9 1.7 0.00 0.00 0.00 78 1017.1
20260902094530 73 138 0.9 1.7 0.00 0.00 0.00 78 1014.3
20260902094319 74 137 0.0 0.0 0.00 0.00 0.00 78 1017.3
20260902094026 74 138 0.0 0.0 0.00 0.00 0.00 78 1014.3
20260902093816 74 138 0.0 0.0 0.00 0.00 0.00 78 1017.4
20260902093508 74 139 0.0 0.0 0.00 0.00 0.00 78 1014.4
20260902093353 74 139 0.0 0.9 0.00 0.00 0.00 78 1017.3
20260902093042 74 139 0.0 0.9 0.00 0.00 0.00 77 1014.5
20260902092829 74 138 0.0 2.6 0.00 0.00 0.00 77 1017.4
20260902092532 74 138 0.0 2.6 0.00 0.00 0.00 77 1014.6
20260902092329 74 138 0.0 2.6 0.00 0.00 0.00 77 1017.5
20260902092026 74 138 0.9 2.6 0.00 0.00 0.00 77 1014.6
20260902091829 74 138 0.9 1.7 0.00 0.00 0.00 77 1017.5
20260902091509 74 138 0.0 0.9 0.00 0.00 0.00 77 1014.6
20260902091327 74 138 0.0 0.9 0.00 0.00 0.00 76 1017.5
20260902091100 74 138 0.0 0.9 0.00 0.00 0.00 76 1014.6
20260902090824 75 138 0.0 0.9 0.00 0.00 0.00 76 1017.5
20260902090554 74 138 0.0 0.9 0.00 0.00 0.00 76 1014.6
20260902090322 75 138 0.0 0.9 0.00 0.00 0.00 76 1017.5
20260902090044 74 139 0.0 0.9 0.00 0.00 0.00 76 1014.6
20260902085820 75 138 0.0 0.9 0.00 0.00 0.00 76 1017.5
20260902085541 74 139 0.0 0.9 0.00 0.00 0.00 76 1014.6
20260902085320 75 139 0.0 0.9 0.00 0.00 0.00 76 1017.5
20260902085032 74 138 0.0 0.9 0.00 0.00 0.00 76 1014.5
20260902084818 75 138 0.0 0.9 0.00 0.00 0.00 76 1017.4
20260902084527 75 138 0.0 0.0 0.00 0.00 0.00 75 1014.6
20260902084315 75 139 0.0 0.0 0.00 0.00 0.00 75 1017.4
20260902084018 75 139 0.0 0.0 0.00 0.00 0.00 75 1014.6
20260902083828 75 138 0.0 0.9 0.00 0.00 0.00 75 1017.5
20260902083504 75 139 0.0 2.6 0.00 0.00 0.00 75 1014.6
20260902083325 76 138 0.0 2.6 0.00 0.00 0.00 74 1017.5
20260902083058 75 139 0.9 2.6 0.00 0.00 0.00 74 1014.6
20260902082822 76 138 1.7 2.6 0.00 0.00 0.00 74 1017.5
20260902082551 76 138 0.0 0.0 0.00 0.00 0.00 74 1014.6
20260902082319 76 138 0.0 0.0 0.00 0.00 0.00 74 1017.5
20260902082044 76 138 0.0 0.0 0.00 0.00 0.00 74 1014.7
20260902081818 76 138 0.0 0.0 0.00 0.00 0.00 74 1017.6
20260902081543 76 138 0.0 0.0 0.00 0.00 0.00 74 1014.7
20260902081317 76 138 0.0 0.0 0.00 0.00 0.00 74 1017.6
20260902081028 76 138 0.0 0.0 0.00 0.00 0.00 74 1014.7
20260902080817 76 138 0.0 0.0 0.00 0.00 0.00 74 1017.6
20260902080518 76 138 0.0 0.0 0.00 0.00 0.00 73 1014.7
20260902080315 76 138 0.0 0.0 0.00 0.00 0.00 73 1017.6
20260902080023 76 138 0.0 0.0 0.00 0.00 0.00 73 1014.6
20260902075813 76 138 0.0 0.0 0.00 0.00 0.00 73 1017.7
20260902075558 76 138 0.0 0.0 0.00 0.00 0.00 73 1014.7
20260902075333 76 138 0.0 0.0 0.00 0.00 0.00 73 1017.6
20260902075051 76 138 0.0 0.9 0.00 0.00 0.00 73 1014.7
20260902074852 76 138 0.0 1.7 0.00 0.00 0.00 72 1017.6
20260902074510 76 138 0.0 1.7 0.00 0.00 0.00 72 1014.7
20260902074328 77 137 0.0 1.7 0.00 0.00 0.00 72 1017.6
20260902074002 76 138 0.9 1.7 0.00 0.00 0.00 72 1014.6
20260902073824 77 138 1.7 1.7 0.00 0.00 0.00 72 1017.5
20260902073602 77 139 0.0 1.7 0.00 0.00 0.00 72 1014.7
20260902073322 77 139 0.0 1.7 0.00 0.00 0.00 72 1017.6
20260902073100 77 138 0.0 1.7 0.00 0.00 0.00 72 1014.7
20260902072839 77 138 0.0 1.7 0.00 0.00 0.00 72 1017.7
20260902072553 77 138 0.0 0.9 0.00 0.00 0.00 72 1014.6
20260902072350 77 138 0.0 0.0 0.00 0.00 0.00 71 1017.6
20260902072014 77 138 0.0 0.9 0.00 0.00 0.00 71 1014.7
20260902071846 77 138 0.0 0.9 0.00 0.00 0.00 71 1017.6
20260902071546 77 138 0.0 0.9 0.00 0.00 0.00 71 1014.7
20260902071321 77 138 0.0 1.7 0.00 0.00 0.00 71 1017.7
20260902071037 77 139 0.0 2.6 0.00 0.00 0.00 71 1014.7
20260902070838 78 138 0.0 2.6 0.00 0.00 0.00 71 1017.6
20260902070601 77 138 0.9 2.6 0.00 0.00 0.00 71 1014.8
20260902070315 78 138 1.7 2.6 0.00 0.00 0.00 71 1017.7
20260902070054 77 138 1.7 2.6 0.00 0.00 0.00 70 1014.7
20260902065833 78 138 1.7 2.6 0.00 0.00 0.00 70 1017.7
20260902065544 78 138 0.0 2.6 0.00 0.00 0.00 70 1014.7
20260902065350 78 138 0.0 2.6 0.00 0.00 0.00 69 1017.5
20260902065006 78 138 0.0 2.6 0.00 0.00 0.00 69 1014.6
20260902064829 78 138 0.9 2.6 0.00 0.00 0.00 69 1017.6
20260902064558 78 138 0.9 1.7 0.00 0.00 0.00 69 1014.8
20260902064326 79 138 0.0 0.9 0.00 0.00 0.00 69 1017.7
20260902064049 78 138 0.0 0.9 0.00 0.00 0.00 69 1014.7
20260902063823 79 139 0.0 0.9 0.00 0.00 0.00 69 1017.8
20260902063544 78 138 0.0 0.9 0.00 0.00 0.00 69 1014.9
20260902063321 79 138 0.0 0.9 0.00 0.00 0.00 69 1017.9
20260902063032 78 139 0.0 0.9 0.00 0.00 0.00 69 1014.8
20260902062818 79 138 0.0 0.9 0.00 0.00 0.00 69 1017.7
20260902062524 78 138 0.0 1.7 0.00 0.00 0.00 69 1014.8
20260902062315 79 138 0.0 1.7 0.00 0.00 0.00 69 1017.8
20260902062006 78 139 0.0 3.5 0.00 0.00 0.00 69 1014.9
20260902061831 79 138 0.9 3.5 0.00 0.00 0.00 69 1017.9
20260902061600 78 139 0.0 7.0 0.00 0.00 0.00 69 1014.9
20260902061351 79 116 1.7 7.0 0.00 0.00 0.00 70 1017.7
20260902061034 78 134 3.5 7.0 0.00 0.00 0.00 70 1014.9
20260902060826 78 130 0.9 4.3 0.00 0.00 0.00 69 1017.7
20260902060523 78 190 0.9 2.6 0.00 0.00 0.00 69 1014.8
20260902060325 78 71 0.9 2.6 0.00 0.00 0.00 68 1017.8
20260902060128 78 71 0.9 4.3 0.00 0.00 0.00 68 1014.8
20260902055819 79 71 0.9 4.3 0.00 0.00 0.00 68 1017.9
20260902055540 79 71 1.7 4.3 0.00 0.00 0.00 68 1014.8
20260902055315 79 35 2.6 4.3 0.00 0.00 0.00 68 1017.9
20260902055032 79 124 0.0 5.2 0.00 0.00 0.00 67 1014.7
20260902054814 79 126 0.9 5.2 0.00 0.00 0.00 67 1017.8
20260902054522 79 149 0.9 5.2 0.00 0.00 0.00 67 1014.7
20260902054330 79 149 0.9 5.2 0.00 0.00 0.00 67 1017.6
20260902054006 79 172 0.0 0.0 0.00 0.00 0.00 66 1014.7
20260902053850 79 172 0.0 0.9 0.00 0.00 0.00 66 1017.7
20260902053541 79 172 0.0 0.9 0.00 0.00 0.00 66 1014.7
20260902053322 79 172 0.0 0.9 0.00 0.00 0.00 66 1017.7
20260902053102 79 173 0.0 0.9 0.00 0.00 0.00 66 1014.6
20260902052839 79 172 0.0 0.9 0.00 0.00 0.00 66 1017.6
20260902052550 79 172 0.0 0.9 0.00 0.00 0.00 65 1014.5
20260902052330 80 172 0.0 0.0 0.00 0.00 0.00 65 1017.5
20260902052042 79 173 0.0 0.9 0.00 0.00 0.00 65 1014.4
20260902051829 80 172 0.0 0.9 0.00 0.00 0.00 65 1017.5
20260902051532 79 173 0.0 0.9 0.00 0.00 0.00 64 1014.5
20260902051325 80 172 0.0 0.9 0.00 0.00 0.00 64 1017.5
20260902051027 80 173 0.0 0.9 0.00 0.00 0.00 64 1014.5
20260902050844 80 173 0.0 0.9 0.00 0.00 0.00 64 1017.5
20260902050547 80 172 0.0 0.9 0.00 0.00 0.00 64 1014.5
20260902050320 80 172 0.0 1.7 0.00 0.00 0.00 64 1017.5
20260902050016 80 173 0.0 1.7 0.00 0.00 0.00 64 1014.5
20260902045827 80 173 0.0 1.7 0.00 0.00 0.00 64 1017.4
20260902045500 80 173 0.0 0.9 0.00 0.00 0.00 64 1014.5
20260902045325 81 172 0.0 0.0 0.00 0.00 0.00 64 1017.4
20260902045054 80 173 0.0 1.7 0.00 0.00 0.00 64 1014.5
20260902044825 81 173 0.0 1.7 0.00 0.00 0.00 64 1017.4
20260902044545 80 173 0.0 1.7 0.00 0.00 0.00 63 1014.5
20260902044322 81 172 0.9 1.7 0.00 0.00 0.00 63 1017.5
20260902044007 80 172 0.9 1.7 0.00 0.00 0.00 63 1014.6
20260902043821 81 173 0.9 1.7 0.00 0.00 0.00 63 1017.5
20260902043600 80 173 0.0 0.9 0.00 0.00 0.00 62 1014.6
20260902043339 81 172 0.0 0.0 0.00 0.00 0.00 62 1017.6
20260902043055 81 172 0.0 2.6 0.00 0.00 0.00 62 1014.6
20260902042830 81 173 0.0 2.6 0.00 0.00 0.00 62 1017.4
20260902042550 81 173 0.0 2.6 0.00 0.00 0.00 62 1014.5
20260902042329 82 173 1.7 2.6 0.00 0.00 0.00 62 1017.4
20260902042045 81 137 0.9 1.7 0.00 0.00 0.00 61 1014.5
20260902041846 82 137 0.0 0.9 0.00 0.00 0.00 61 1017.4
20260902041510 81 137 0.0 0.9 0.00 0.00 0.00 61 1014.4
20260902041322 82 138 0.0 0.9 0.00 0.00 0.00 60 1017.5
20260902041002 82 137 0.0 0.9 0.00 0.00 0.00 60 1014.5
20260902040820 82 137 0.0 0.9 0.00 0.00 0.00 60 1017.4
20260902040556 82 137 0.0 0.9 0.00 0.00 0.00 60 1014.5
20260902040318 82 137 0.0 0.9 0.00 0.00 0.00 60 1017.4
20260902040048 82 137 0.0 1.7 0.00 0.00 0.00 60 1014.5
20260902035835 83 138 0.0 1.7 0.00 0.00 0.00 60 1017.4
20260902035518 82 137 0.0 1.7 0.00 0.00 0.00 60 1014.4
20260902035332 83 137 0.9 1.7 0.00 0.00 0.00 60 1017.3
20260902035005 82 138 0.0 0.9 0.00 0.00 0.00 60 1014.4
20260902034829 83 137 0.0 0.9 0.00 0.00 0.00 59 1017.4
20260902034555 82 137 0.0 0.9 0.00 0.00 0.00 59 1014.3
20260902034326 83 137 0.0 0.9 0.00 0.00 0.00 59 1017.3
20260902034046 83 137 0.0 0.9 0.00 0.00 0.00 59 1014.3
20260902033843 83 138 0.0 0.0 0.00 0.00 0.00 58 1017.3
20260902033517 83 137 0.0 0.9 0.00 0.00 0.00 58 1014.4
20260902033319 83 137 0.0 1.7 0.00 0.00 0.00 58 1017.3
20260902033106 83 137 0.0 1.7 0.00 0.00 0.00 58 1014.2
20260902032816 84 137 0.0 1.7 0.00 0.00 0.00 58 1017.3
20260902032552 83 137 0.9 1.7 0.00 0.00 0.00 58 1014.1
20260902032314 84 137 0.9 0.9 0.00 0.00 0.00 57 1017.2
20260902032044 83 137 0.0 0.9 0.00 0.00 0.00 57 1014.2
20260902031832 84 137 0.0 0.9 0.00 0.00 0.00 57 1017.2
20260902031536 84 137 0.0 0.9 0.00 0.00 0.00 57 1014.1
20260902031330 84 137 0.9 0.9 0.00 0.00 0.00 57 1016.9
20260902031028 84 137 0.0 1.7 0.00 0.00 0.00 56 1014.0
20260902030827 85 137 0.9 2.6 0.00 0.00 0.00 56 1016.8
20260902030510 84 137 0.0 2.6 0.00 0.00 0.00 56 1013.9
20260902030325 85 137 0.0 2.6 0.00 0.00 0.00 56 1016.8
20260902030109 84 137 0.9 2.6 0.00 0.00 0.00 56 1013.7
20260902025843 85 137 0.9 1.7 0.00 0.00 0.00 56 1016.6
20260902025532 85 138 0.9 1.7 0.00 0.00 0.00 56 1013.7
20260902025320 85 137 0.9 1.7 0.00 0.00 0.00 56 1016.6
20260902025026 85 138 0.0 1.7 0.00 0.00 0.00 55 1013.5
20260902024818 85 138 0.9 1.7 0.00 0.00 0.00 55 1016.5
20260902024517 85 137 0.0 0.0 0.00 0.00 0.00 54 1013.4
20260902024315 86 137 0.0 0.0 0.00 0.00 0.00 54 1016.4
20260902024100 85 138 0.0 0.9 0.00 0.00 0.00 54 1013.3
20260902023848 86 137 0.0 1.7 0.00 0.00 0.00 55 1016.3
20260902023531 85 138 0.0 1.7 0.00 0.00 0.00 55 1013.1
20260902023325 86 138 0.0 1.7 0.00 0.00 0.00 55 1016.1
20260902023032 86 137 0.9 2.6 0.00 0.00 0.00 55 1012.9
20260902022822 86 138 1.7 2.6 0.00 0.00 0.00 55 1016.0
20260902022504 86 137 0.9 2.6 0.00 0.00 0.00 54 1012.9
20260902022340 86 137 1.7 2.6 0.00 0.00 0.00 54 1015.9
20260902022054 86 137 0.9 1.7 0.00 0.00 0.00 54 1013.0
20260902021830 87 137 0.9 1.7 0.00 0.00 0.00 54 1015.9
20260902021549 87 137 0.9 1.7 0.00 0.00 0.00 53 1012.9
20260902021326 87 138 0.0 0.0 0.00 0.00 0.00 53 1015.9
20260902021036 87 137 0.0 0.0 0.00 0.00 0.00 53 1012.7
20260902020824 87 137 0.0 0.0 0.00 0.00 0.00 53 1015.8
20260902020528 87 137 0.0 0.0 0.00 0.00 0.00 52 1012.8
20260902020321 88 137 0.0 0.0 0.00 0.00 0.00 52 1015.7
20260902020021 87 138 0.0 0.0 0.00 0.00 0.00 52 1012.6
20260902015819 88 137 0.0 0.0 0.00 0.00 0.00 52 1015.8
20260902015602 87 137 0.0 0.0 0.00 0.00 0.00 52 1012.6
20260902015336 88 137 0.0 0.0 0.00 0.00 0.00 52 1015.6
20260902015036 88 138 0.0 0.0 0.00 0.00 0.00 51 1012.5
20260902014832 88 138 0.0 0.0 0.00 0.00 0.00 51 1015.5
20260902014517 88 120 0.0 0.0 0.00 0.00 0.00 51 1012.4
20260902014330 89 117 0.0 0.0 0.00 0.00 0.00 51 1015.5
20260902014008 88 131 0.0 0.0 0.00 0.00 0.00 51 1012.4
20260902013829 89 145 0.0 0.0 0.00 0.00 0.00 51 1015.4
20260902013600 89 145 0.0 0.0 0.00 0.00 0.00 51 1012.4
20260902013327 89 137 0.0 0.0 0.00 0.00 0.00 50 1015.4
20260902013054 89 138 0.0 0.0 0.00 0.00 0.00 50 1012.4
20260902012826 89 129 0.0 0.0 0.00 0.00 0.00 50 1015.4
20260902012551 89 133 0.0 0.0 0.00 0.00 0.00 50 1012.4
20260902012325 90 139 0.0 0.0 0.00 0.00 0.00 49 1015.4
20260902012049 89 94 0.0 0.0 0.00 0.00 0.00 49 1012.3
20260902011823 90 127 0.0 0.0 0.00 0.00 0.00 49 1015.4
20260902011530 90 100 0.0 0.0 0.00 0.00 0.00 49 1012.3
20260902011322 90 93 0.0 0.0 0.00 0.00 0.00 49 1015.3
20260902011024 90 104 0.0 0.0 0.00 0.00 0.00 48 1012.2
20260902010821 91 106 0.0 0.0 0.00 0.00 0.00 48 1015.2
20260902010507 90 102 0.0 0.0 0.00 0.00 0.00 48 1012.2
20260902010321 91 118 0.0 0.0 0.00 0.00 0.00 48 1015.2
20260902010100 91 89 0.0 0.0 0.00 0.00 0.00 47 1012.2
20260902005819 91 109 0.0 0.0 0.00 0.00 0.00 47 1015.2
20260902005553 91 106 0.0 0.0 0.00 0.00 0.00 47 1012.2
20260902005318 91 93 0.0 0.0 0.00 0.00 0.00 47 1015.3
20260902005046 91 87 0.0 0.0 0.00 0.00 0.00 47 1012.2
20260902004836 92 89 0.0 0.0 0.00 0.00 0.00 47 1015.3
20260902004519 91 71 0.0 0.0 0.00 0.00 0.00 46 1012.2
20260902004314 92 20 0.0 0.0 0.00 0.00 0.00 46 1015.2
20260902004003 92 151 0.0 0.0 0.00 0.00 0.00 46 1012.3
20260902003814 92 116 0.0 0.0 0.00 0.00 0.00 46 1015.3
20260902003557 92 111 0.0 0.0 0.00 0.00 0.00 46 1012.3
20260902003333 93 108 0.0 0.0 0.00 0.00 0.00 46 1015.3
20260902003055 92 79 0.0 0.0 0.00 0.00 0.00 46 1012.3
20260902002852 93 114 0.0 0.0 0.00 0.00 0.00 45 1015.3
20260902002517 93 89 0.0 0.0 0.00 0.00 0.00 45 1012.3
20260902002329 93 121 0.0 0.0 0.00 0.00 0.00 45 1015.3
20260902002015 93 83 0.0 0.0 0.00 0.00 0.00 45 1012.3
20260902001829 93 105 0.0 0.0 0.00 0.00 0.00 45 1015.3
20260902001504 93 106 0.0 0.0 0.00 0.00 0.00 44 1012.3
20260902001329 94 96 0.0 0.0 0.00 0.00 0.00 44 1015.4
20260902001055 93 122 0.0 0.0 0.00 0.00 0.00 44 1012.3
20260902000847 94 96 0.0 0.0 0.00 0.00 0.00 44 1015.3
20260902000528 93 111 0.0 0.0 0.00 0.00 0.00 44 1012.3
20260902000346 94 106 0.0 0.0 0.00 0.00 0.00 43 1015.3
20260902000115 94 93 0.0 0.0 0.00 0.00 0.00 43 1012.2
20260901235842 94 143 0.0 0.0 0.00 0.00 0.00 43 1015.3
20260901235526 94 129 0.0 0.0 0.00 0.00 0.00 43 1012.2
20260901235341 94 118 0.0 0.0 0.00 0.00 0.00 43 1015.1
20260901235052 94 139 0.0 0.0 0.00 0.00 0.00 43 1012.2
20260901234819 94 127 0.0 0.0 0.00 0.00 0.00 43 1015.3
20260901234544 94 132 0.0 0.0 0.00 0.00 0.00 43 1012.3
20260901234318 94 137 0.0 0.0 0.00 0.00 0.00 43 1015.3
20260901234036 94 135 0.0 0.0 0.00 0.00 0.00 43 1012.3
20260901233819 94 142 0.0 0.0 0.00 0.00 0.00 43 1015.3
20260901233530 94 142 0.0 0.0 0.00 0.00 0.00 43 1012.3
20260901233337 94 154 0.0 0.0 0.00 0.00 0.00 43 1015.4
20260901233054 94 159 0.0 0.0 0.00 0.00 0.00 43 1012.4
20260901232815 94 145 0.0 0.0 0.00 0.00 0.00 43 1015.4
20260901232546 94 151 0.0 0.0 0.00 0.00 0.00 43 1012.4
20260901232314 94 115 0.0 0.0 0.00 0.00 0.00 43 1015.4
20260901232038 93 113 0.0 0.0 0.00 0.00 0.00 43 1012.4
20260901231814 94 112 0.0 0.0 0.00 0.00 0.00 43 1015.4
20260901231533 93 100 0.0 0.0 0.00 0.00 0.00 43 1012.4
20260901231350 94 138 0.0 0.0 0.00 0.00 0.00 43 1015.5
20260901231057 93 125 0.0 0.0 0.00 0.00 0.00 43 1012.4
20260901230826 94 118 0.0 0.0 0.00 0.00 0.00 43 1015.4
20260901230552 93 132 0.0 0.0 0.00 0.00 0.00 43 1012.4
20260901230326 94 133 0.0 0.0 0.00 0.00 0.00 43 1015.5
20260901230054 93 152 0.0 0.0 0.00 0.00 0.00 42 1012.4
20260901225825 94 116 0.0 0.0 0.00 0.00 0.00 42 1015.5
20260901225539 94 110 0.0 0.0 0.00 0.00 0.00 42 1012.4
20260901225323 94 100 0.0 0.0 0.00 0.00 0.00 42 1015.4
20260901225032 94 141 0.0 0.0 0.00 0.00 0.00 42 1012.3
20260901224824 95 152 0.0 0.0 0.00 0.00 0.00 42 1015.4
20260901224528 94 112 0.0 0.0 0.00 0.00 0.00 41 1012.2
20260901224323 95 82 0.0 0.0 0.00 0.00 0.00 41 1015.3
20260901224010 95 104 0.0 0.0 0.00 0.00 0.00 41 1012.3
20260901223821 95 105 0.0 0.0 0.00 0.00 0.00 41 1015.3
20260901223502 95 78 0.0 0.0 0.00 0.00 0.00 41 1012.1
20260901223342 95 48 0.0 0.0 0.00 0.00 0.00 41 1015.3
20260901223037 95 78 0.0 0.0 0.00 0.00 0.00 41 1012.2
20260901222839 95 143 0.0 0.0 0.00 0.00 0.00 41 1015.2
20260901222526 95 79 0.0 0.0 0.00 0.00 0.00 42 1012.2
20260901222331 95 96 0.0 0.0 0.00 0.00 0.00 42 1015.2
20260901222013 95 97 0.0 0.0 0.00 0.00 0.00 42 1012.1
20260901221830 95 89 0.0 0.0 0.00 0.00 0.00 42 1015.3
20260901221507 94 104 0.0 0.0 0.00 0.00 0.00 43 1012.2
20260901221329 95 73 0.0 0.0 0.00 0.00 0.00 43 1015.3
20260901221007 94 79 0.0 0.0 0.00 0.00 0.00 42 1012.3
20260901220826 95 112 0.0 0.0 0.00 0.00 0.00 42 1015.3
20260901220559 95 46 0.0 0.0 0.00 0.00 0.00 42 1012.3
20260901220324 95 86 0.0 0.0 0.00 0.00 0.00 42 1015.4
20260901220112 95 83 0.0 0.0 0.00 0.00 0.00 42 1012.4
20260901215823 95 102 0.0 0.0 0.00 0.00 0.00 43 1015.4
20260901215541 95 60 0.0 0.0 0.00 0.00 0.00 42 1012.3
20260901215320 95 14 0.0 0.0 0.00 0.00 0.00 42 1015.3
20260901215033 95 37 0.0 0.0 0.00 0.00 0.00 42 1012.4
20260901214839 96 75 0.0 0.0 0.00 0.00 0.00 42 1015.4
20260901214519 95 45 0.0 0.0 0.00 0.00 0.00 42 1012.4
20260901214329 96 60 0.0 0.0 0.00 0.00 0.00 42 1015.4
20260901214001 95 64 0.0 0.0 0.00 0.00 0.00 42 1012.5
20260901213825 96 63 0.0 0.0 0.00 0.00 0.00 41 1015.4
20260901213555 95 101 0.0 0.0 0.00 0.00 0.00 42 1012.5
20260901213322 96 76 0.0 0.0 0.00 0.00 0.00 42 1015.6
20260901213108 95 66 0.0 0.0 0.00 0.00 0.00 42 1012.4
20260901212840 95 95 0.0 0.0 0.00 0.00 0.00 42 1015.6
20260901212531 95 91 0.0 0.0 0.00 0.00 0.00 42 1012.6
20260901212330 95 130 0.0 0.0 0.00 0.00 0.00 42 1015.6
20260901212014 95 14 0.0 0.0 0.00 0.00 0.00 42 1012.6
20260901211829 95 108 0.0 0.0 0.00 0.00 0.00 42 1015.7
20260901211506 95 47 0.0 0.0 0.00 0.00 0.00 41 1012.7
20260901211326 96 52 0.0 0.0 0.00 0.00 0.00 42 1015.7
20260901211058 95 51 0.0 0.0 0.00 0.00 0.00 42 1012.8
20260901210843 96 48 0.0 0.0 0.00 0.00 0.00 42 1015.8
20260901210527 95 60 0.0 0.0 0.00 0.00 0.00 42 1012.9
20260901210319 95 116 0.0 0.0 0.00 0.00 0.00 42 1016.0
20260901210020 95 73 0.0 0.0 0.00 0.00 0.00 43 1013.0
20260901205816 95 102 0.0 0.0 0.00 0.00 0.00 43 1016.0
20260901205505 95 151 0.0 0.0 0.00 0.00 0.00 42 1013.0
20260901205400 95 148 0.0 0.0 0.00 0.00 0.00 42 1016.1
20260901205035 95 147 0.0 0.0 0.00 0.00 0.00 42 1013.1
20260901204830 95 156 0.0 0.0 0.00 0.00 0.00 42 1016.3
20260901204534 94 177 0.0 0.0 0.00 0.00 0.00 42 1013.2
20260901204327 95 197 0.0 0.0 0.00 0.00 0.00 42 1016.3
20260901204007 94 231 0.0 0.0 0.00 0.00 0.00 42 1013.2
20260901203824 94 231 0.0 0.0 0.00 0.00 0.00 43 1016.3
20260901203603 94 145 0.0 0.0 0.00 0.00 0.00 42 1013.3
20260901203342 94 142 0.0 0.0 0.00 0.00 0.00 43 1016.4
20260901203048 94 81 0.0 0.0 0.00 0.00 0.00 43 1013.3
20260901202819 94 128 0.0 0.0 0.00 0.00 0.00 44 1016.4
20260901202521 94 145 0.0 0.0 0.00 0.00 0.00 43 1013.4
20260901202337 94 68 0.0 0.0 0.00 0.00 0.00 44 1016.5
20260901202049 94 103 0.0 0.0 0.00 0.00 0.00 43 1013.5
20260901201831 95 137 0.0 0.0 0.00 0.00 0.00 43 1016.5
20260901201507 94 123 0.0 0.0 0.00 0.00 0.00 43 1013.5
20260901201344 95 129 0.0 0.0 0.00 0.00 0.00 44 1016.6
20260901201040 94 46 0.0 0.0 0.00 0.00 0.00 44 1013.5
20260901200820 95 82 0.0 0.0 0.00 0.00 0.00 43 1016.5
20260901200535 94 26 0.0 0.0 0.00 0.00 0.00 43 1013.5
20260901200318 94 157 0.0 0.0 0.00 0.00 0.00 43 1016.7
20260901200019 94 110 0.0 0.0 0.00 0.00 0.00 44 1013.5
20260901195814 94 113 0.0 0.0 0.00 0.00 0.00 44 1016.7
20260901195502 93 148 0.0 0.0 0.00 0.00 0.00 44 1013.7
20260901195331 94 145 0.0 0.0 0.00 0.00 0.00 44 1016.8
20260901195056 93 127 0.0 0.0 0.00 0.00 0.00 44 1013.9
20260901194829 94 162 0.0 0.0 0.00 0.00 0.00 44 1016.9
20260901194551 93 83 0.0 0.0 0.00 0.00 0.00 44 1013.9
20260901194328 94 118 0.0 0.0 0.00 0.00 0.00 45 1016.9
20260901194039 93 152 0.0 0.0 0.00 0.00 0.00 45 1014.0
20260901193824 94 170 0.0 0.0 0.00 0.00 0.00 45 1017.0
20260901193530 93 158 0.0 0.0 0.00 0.00 0.00 45 1014.0
20260901193321 94 137 0.0 0.0 0.00 0.00 0.00 46 1017.0
20260901193022 93 70 0.0 0.0 0.00 0.00 0.00 46 1014.0
20260901192839 94 88 0.0 0.0 0.00 0.00 0.00 46 1017.0
20260901192513 93 129 0.0 0.0 0.00 0.00 0.00 46 1014.1
20260901192330 93 123 0.0 0.0 0.00 0.00 0.00 46 1017.2
20260901192102 93 160 0.0 0.0 0.00 0.00 0.00 46 1014.2
20260901191829 94 118 0.0 0.0 0.00 0.00 0.00 46 1017.3
20260901191551 93 106 0.0 0.0 0.00 0.00 0.00 46 1014.2
20260901191326 94 128 0.0 0.0 0.00 0.00 0.00 46 1017.2
20260901191052 93 54 0.0 0.0 0.00 0.00 0.00 46 1014.2
20260901190825 93 52 0.0 0.0 0.00 0.00 0.00 46 1017.3
20260901190546 93 83 0.0 0.0 0.00 0.00 0.00 46 1014.3
20260901190323 93 107 0.0 0.0 0.00 0.00 0.00 46 1017.3
20260901190039 93 122 0.0 0.0 0.00 0.00 0.00 46 1014.3
20260901185839 93 46 0.0 0.0 0.00 0.00 0.00 46 1017.3
20260901185527 93 103 0.0 0.0 0.00 0.00 0.00 46 1014.4
20260901185330 93 100 0.0 0.0 0.00 0.00 0.00 46 1017.4
20260901185015 92 92 0.0 0.0 0.00 0.00 0.00 47 1014.5
20260901184847 93 104 0.0 0.0 0.00 0.00 0.00 46 1017.6
20260901184549 92 149 0.0 0.0 0.00 0.00 0.00 48 1014.6
20260901184343 92 52 0.0 0.0 0.00 0.00 0.00 47 1017.6
20260901184009 92 35 0.0 0.0 0.00 0.00 0.00 48 1014.7
20260901183843 93 83 0.0 0.0 0.00 0.00 0.00 47 1017.8
20260901183543 92 68 0.0 0.0 0.00 0.00 0.00 47 1014.8
20260901183321 93 51 0.0 0.0 0.00 0.00 0.00 47 1017.7